Location: Kimberly
(42.5380°N, 114.3640°W)
Time: 00:40:35
(UTC-06:00)

Hubble Space Telescope - Visible Passes

Search period start: 12 August 2020 00:00
Search period end: 22 August 2020 00:00
Orbit: 536 x 540 km, 28.5° (Epoch: 11 August)

Date Brightness Start Highest point End Pass type
(mag) Time Alt. Az. Time Alt. Az. Time Alt. Az.
12 Aug 3.1 05:51:21 10° S 05:52:00 10° S 05:52:40 10° SSE visible
13 Aug 3.0 05:40:03 10° S 05:41:09 11° S 05:42:15 10° SSE visible
14 Aug 3.0 05:29:28 11° S 05:30:18 11° S 05:31:35 10° SSE visible
15 Aug 3.0 05:19:26 11° S 05:19:26 11° S 05:20:47 10° SSE visible
16 Aug 3.1 05:09:28 11° S 05:09:28 11° S 05:09:50 10° SSE visible
